Regional Weather Roundup
Issued by NWS State College, PA

Home | Current Version | Previous Version | Graphics & Text | Print | Product List | Glossary On
Versions: 1 2 3 4 5 6 7 8 9 10 11 12 13 14 15 16 17 18 19 20 21 22 23 24 25 26 27 28 29 30 31 32 33 34 35 36 37 38 39 40 41 42 43 44 45 46 47 48 49 50
000
ASUS41 KCTP 221203
RWRCTP

REGIONAL WEATHER ROUNDUP
NATIONAL WEATHER SERVICE STATE COLLEGE PA
800 AM EDT TUE JUL 22 2014

Note: "fair" indicates few or no clouds below 12,000 feet with no
significant weather and/or obstructions to visibility.

* = STATION THAT DOES NOT REPORT PRECIPITATION /E.G. RAIN...SNOW...ETC/
    THUNDER OR FOG.

PAZ002>004-007>009-013>016-020>023-029>032-221300-
WESTERN PENNSYLVANIA

CITY           SKY/WX    TMP DP  RH WIND       PRES   REMARKS
ERIE           SUNNY     72  65  78 CALM      30.14R
MEADVILLE      SUNNY     71  66  84 CALM      30.18R
FRANKLIN*      MOSUNNY   66  64  94 CALM      30.19S
NEW CASTLE       N/A     66  66 100 CALM      30.17S FOG
BEAVER COUNTY  SUNNY     70  68  94 CALM      30.17R FOG
BUTLER*        SUNNY     70  66  88 E3        30.19R
PITTSBURGH INT SUNNY     70  68  93 CALM      30.16R
PITTSBURGH     SUNNY     71  67  87 S7        30.16R
INDIANA*       SUNNY     70  68  94 SE3       30.23R
LATROBE        SUNNY     70  70 100 CALM      30.19R
WASHINGTON CO* SUNNY     70  68  94 CALM      30.18R
$$

PAZ004>006-010>012-017>019-024>028-033>037-041-042-045-046-049>053-221300-
CENTRAL PENNSYLVANIA

CITY           SKY/WX    TMP DP  RH WIND       PRES   REMARKS
BRADFORD       FOG       65  64  97 SE3       30.22R VSB<1/4
DUBOIS         SUNNY     69  67  93 E3        30.20R FOG
CLEARFIELD     FOG       65  65 100 N3        30.21R VSB<1/4
JOHNSTOWN      MOSUNNY   68  65  90 S6        30.23R
ALTOONA        MOSUNNY   71  69  93 S5        30.22R
STATE COLLEGE  CLOUDY    70  66  88 CALM      30.21R FOG
WILLIAMSPORT   CLOUDY    69  65  86 CALM      30.17S
SELINSGROVE    CLOUDY    70  68  93 CALM      30.19R FOG
FT INDIANTOWN  CLOUDY    68  68 100 CALM      30.20R
CAPITAL CITY   CLOUDY    73  67  81 CALM      30.19R
HARRISBURG     CLOUDY    73  67  81 S7        30.19R
YORK           CLOUDY    72  68  87 S3        30.20R
$$

PAZ038>040-043-044-047-048-054-055-060>062-067>071-221300-
EASTERN PENNSYLVANIA

CITY           SKY/WX    TMP DP  RH WIND       PRES   REMARKS
SCRANTON       SUNNY     71  63  75 CALM      30.20R
MOUNT POCONO   SUNNY     69  63  81 W5        30.24R
ALLENTOWN      SUNNY     71  65  81 CALM      30.20R
QUAKERTOWN*    SUNNY     68  64  88 S3        30.22R
READING        MOSUNNY   71  65  81 S3        30.19R
LANCASTER      PTSUNNY   70  67  90 CALM      30.20R FOG
COATESVILLE    FOG       68  68 100 CALM      30.23R VSB<1/4
POTTSTOWN      SUNNY     69  65  86 CALM      30.22R
BLUE BELL      SUNNY     73  66  78 CALM      30.20R
DOYLESTOWN     SUNNY     69  63  81 SW5       30.20R
WILLOW GROVE   NOT AVBL
NORTH PHILA    SUNNY     74  63  68 CALM      30.22R
PHILADELPHIA   MOSUNNY   73  65  75 CALM      30.20R
$$



USA.gov is the U.S. government's official web portal to all federal, state and local government web resources and services.